Notices

What's New in latest Release from April 7th, 2021:

- Updated Glossary, including Speed of Maximum Gust, and Total Hourly Precipitation

- Updated national and regional climate services offices contacts and prices information

- Addition of station inventory lists for 1981-2010, 1971-2000, and 1961-1990 Normals.

If you haven't already, please take our survey and provide feedback about our website: https://eccc.sondage-survey.ca/f/LanguageSelection.aspx?s=442ca660-fcf1-47c0-95a9-59707d6fd709

Hourly Data Report for April 07, 2021

ALGONQUIN PARK EAST GATE
ONTARIO
Current Station Operator: ECCC - MSC

45°32'00.000" N
78°16'00.000" W
397.00 m
6080192
71581
TNK

Download Data

Hourly Data (April 2021)
Hourly Data Report for April 7, 2021
TIME
LST
Temp Definition
°C
Dew Point Definition
°C
Rel Hum Definition
%
Precip. Amount Definition
mm

Wind Dir Definition
10's deg

Wind Spd Definition
km/h
Visibility Definition
km
Stn Press Definition
kPa
Hmdx Definition


Wind Chill Definition


Weather Definition


00:00 4.4 3.2 92 0.0   0   96.92     LegendNANA
01:00 4.2 3.0 92 0.0 0 1   96.90     LegendNANA
02:00 3.9 2.7 92 0.0 10 1   96.89     LegendNANA
03:00 3.8 2.6 92 0.0   0   96.88     LegendNANA
04:00 3.6 2.5 93 0.0   0   96.90     LegendNANA
05:00 3.5 2.4 93 0.0   0   96.92     LegendNANA
06:00 3.4 2.4 93 0.0   0   97.00     LegendNANA
07:00 4.0 3.0 94 0.0 0 1   97.10     LegendNANA
08:00 7.1 5.2 88 0.0   0   97.09     LegendNANA
09:00 8.9 4.5 74 0.0   0   97.08     LegendNANA
10:00 12.9 3.3 52 0.0 8 4   97.05     LegendNANA
11:00 15.4 2.3 41 0.0 4 4   97.04     LegendNANA
12:00 16.9 0.3 32 0.0 10 4   97.00     LegendNANA
13:00 17.8 -2.2 25 0.0 14 4   96.98     LegendNANA
14:00 18.7 -3.1 23 0.0 13 7   96.95     LegendNANA
15:00 17.7 -2.8 25 0.0 10 5   96.90     LegendNANA
16:00 18.4 -6.2 18 0.0 12 8   96.87     LegendNANA
17:00 17.8 -5.9 19 0.0 12 9   96.89     LegendNANA
18:00 14.1 -6.1 24 0.0 9 3   96.88     LegendNANA
19:00 8.8 0.9 58 0.0 8 2   96.88     LegendNANA
20:00 5.8 0.1 66 0.0 9 1   96.95     LegendNANA
21:00 4.1 -0.7 71 0.0   0   96.97     LegendNANA
22:00 2.6 -1.6 74 0.0   0   96.97     LegendNANA
23:00 1.9 -1.5 78 0.0   0   96.98     LegendNANA

Notes on Data Quality.

Legend

  • E = Estimated
  • M = Missing
  • NA = Not Available*
  • [empty] = Indicates an unobserved value
Date modified: